| time (UTC) | temp F | wind direction | speed MPH | gust MPH | rain 1hr in | rain 24hr in | rain mn in | humidity % | barometer mb |
| 20260905070158 | 64 | 321 | 0.0 | 1.0 | 0.00 | 0.12 | 0.00 | 85 | 1009.7 |
| 20260905070151 | 64 | 321 | 0.0 | 1.0 | 0.00 | 0.12 | 0.00 | 85 | 1009.7 |
| 20260905060151 | 65 | 0 | 0.0 | 0.0 | 0.00 | 0.12 | 0.00 | 86 | 1010.2 |
| 20260905050151 | 66 | 93 | 1.0 | 2.0 | 0.00 | 0.12 | 0.00 | 82 | 1010.5 |
| 20260905040151 | 66 | 0 | 0.0 | 0.0 | 0.00 | 0.12 | 0.00 | 86 | 1010.6 |
| 20260905030152 | 67 | 0 | 0.0 | 0.0 | 0.00 | 0.12 | 0.12 | 84 | 1010.4 |
| 20260905020151 | 68 | 0 | 0.0 | 0.0 | 0.00 | 0.12 | 0.12 | 84 | 1010.4 |
| 20260905010153 | 69 | 0 | 0.0 | 0.0 | 0.00 | 0.12 | 0.12 | 81 | 1010.7 |
| 20260905000151 | 72 | 0 | 0.0 | 0.0 | 0.00 | 0.12 | 0.12 | 74 | 1010.4 |
| 20260904230151 | 79 | 0 | 0.0 | 0.0 | 0.00 | 0.12 | 0.12 | 59 | 1010.1 |
| 20260904220153 | 83 | 285 | 1.0 | 6.0 | 0.00 | 0.12 | 0.12 | 47 | 1009.9 |
| 20260904210151 | 83 | 4 | 1.0 | 4.0 | 0.00 | 0.12 | 0.12 | 46 | 1010.1 |
| 20260904200151 | 83 | 304 | 3.0 | 10.0 | 0.00 | 0.12 | 0.12 | 45 | 1010.2 |
| 20260904190151 | 82 | 289 | 5.0 | 15.0 | 0.00 | 0.12 | 0.12 | 48 | 1010.4 |
| 20260904180152 | 82 | 15 | 3.0 | 7.0 | 0.00 | 0.12 | 0.12 | 48 | 1010.6 |
| 20260904170156 | 82 | 19 | 2.0 | 6.0 | 0.00 | 0.12 | 0.12 | 53 | 1010.6 |
| 20260904140152 | 77 | 5 | 3.0 | 9.0 | 0.00 | 0.12 | 0.12 | 76 | 1011.2 |
| 20260904120152 | 72 | 0 | 0.0 | 0.0 | 0.00 | 0.12 | 0.12 | 95 | 1011.2 |
| 20260904110150 | 70 | 0 | 0.0 | 0.0 | 0.00 | 0.12 | 0.12 | 95 | 1010.7 |
| 20260904103150 | 71 | 0 | 0.0 | 0.0 | 0.00 | 0.12 | 0.12 | 95 | 1010.3 |